Weather History for Page, AZ

Change the Weather History Date:

Tuesday, September 24, 2013

  Actual Average Record
Temperature  
Mean Temperature 68 °F -  
Max Temperature 82 °F 79 °F 92 °F (1982)
Min Temperature 55 °F 55 °F 43 °F (2000)
Cooling Degree Days 4    
Growing Degree Days 18 (Base 50)    
Moisture  
Dew Point 32 °F    
Average Humidity 26    
Maximum Humidity 45    
Minimum Humidity 8    
Precipitation  
Precipitation 0.00 in - - ()
Sea Level Pressure  
Sea Level Pressure 29.88 in    
Wind  
Wind Speed 4 mph (WSW)    
Max Wind Speed 8 mph    
Max Gust Speed -    
Visibility 10 miles    
Events      
Averages and records for this station are not official NWS values.
T = Trace of Precipitation, MM = Missing Value Source: NWS Daily Summary

Daily Weather History Graph

Daily Weather History Graph

Search for Another Location

Airport:

Trip Planner

Search our weather history database for the weather conditions in past years. The results will help you decide how hot, cold, wet, or windy it might be!

Date:

Astronomy

Sep. 24, 2013 Rise Set
Actual Time 6:15 AM MST 6:19 PM MST
Civil Twilight 5:49 AM MST 6:45 PM MST
Nautical Twilight 5:19 AM MST 7:15 PM MST
Astronomical Twilight 4:48 AM MST 7:45 PM MST
Moon 9:47 PM MST (9/24) 11:25 AM MST (9/24)
Length of Visible Light 12h 55m
Length of Day
12h 03m
Waning Gibbous, 72% of the Moon is Illuminated
Sep 24
Waning Gibbous
Sep 26
Last Quarter
Oct 4
New
Oct 11
First Quarter
Oct 18
Full

Hourly Weather History & Observations

Time (MST) Temp. Dew Point Humidity Pressure Visibility Wind Dir Wind Speed Gust Speed Precip Events Conditions
12:53 AM 59.0 °F 28.0 °F 31% 29.96 in 10.0 mi SSE 3.5 mph - N/A   Clear
1:53 AM 57.9 °F 30.0 °F 35% 29.96 in 10.0 mi West 3.5 mph - N/A   Clear
2:53 AM 55.9 °F 30.9 °F 39% 29.96 in 10.0 mi SSW 3.5 mph - N/A   Clear
3:53 AM 57.9 °F 32.0 °F 37% 29.96 in 10.0 mi West 3.5 mph - N/A   Clear
4:53 AM 55.0 °F 34.0 °F 45% 29.97 in 10.0 mi WSW 4.6 mph - N/A   Clear
5:53 AM 55.9 °F 34.0 °F 44% 29.98 in 10.0 mi WSW 4.6 mph - N/A   Clear
6:53 AM 57.0 °F 34.0 °F 42% 30.01 in 10.0 mi Calm Calm - N/A   Clear
7:53 AM 62.1 °F 35.1 °F 37% 30.02 in 10.0 mi Calm Calm - N/A   Clear
8:53 AM 64.9 °F 34.0 °F 32% 30.02 in 10.0 mi Calm Calm - N/A   Clear
9:53 AM 68.0 °F 36.0 °F 31% 30.01 in 10.0 mi Calm Calm - N/A   Clear
10:53 AM 71.1 °F 35.1 °F 27% 29.98 in 10.0 mi NW 3.5 mph - N/A   Clear
11:53 AM 73.9 °F 33.1 °F 22% 29.95 in 10.0 mi NNE 5.8 mph - N/A   Clear
12:53 PM 77.0 °F 34.0 °F 21% 29.91 in 10.0 mi Variable 3.5 mph - N/A   Clear
1:53 PM 79.0 °F 34.0 °F 20% 29.87 in 10.0 mi Variable 5.8 mph - N/A   Clear
2:53 PM 82.0 °F 33.1 °F 17% 29.83 in 10.0 mi Variable 3.5 mph - N/A   Clear
3:53 PM 82.0 °F 32.0 °F 16% 29.79 in 10.0 mi Calm Calm - N/A   Clear
4:53 PM 82.9 °F 32.0 °F 16% 29.77 in 10.0 mi NNE 5.8 mph - N/A   Clear
5:53 PM 79.0 °F 33.1 °F 19% 29.75 in 10.0 mi NE 3.5 mph - N/A   Clear
6:53 PM 75.0 °F 32.0 °F 21% 29.75 in 10.0 mi ESE 4.6 mph - N/A   Clear
7:53 PM 77.0 °F 30.0 °F 18% 29.73 in 10.0 mi WSW 8.1 mph - N/A   Clear
8:53 PM 72.0 °F 32.0 °F 23% 29.73 in 10.0 mi SW 4.6 mph - N/A   Clear
9:53 PM 73.0 °F 27.0 °F 18% 29.72 in 10.0 mi WSW 6.9 mph - N/A   Clear
10:53 PM 72.0 °F 27.0 °F 19% 29.73 in 10.0 mi South 4.6 mph - N/A   Clear
11:53 PM 71.1 °F 27.0 °F 19% 29.70 in 10.0 mi WSW 3.5 mph - N/A   Clear